User: anonymous   Login
Location: Newark
(45.4422°N, 16.2769°E)
Time: 23:28:49
(UTC+00:00)
Language:

Vanguard 2 Rocket - Orbit

View from above orbital plane
View from above orbital plane
View from above satellite
View from above satellite

Ground track
Ground track

The orbit data is extracted from the following two-line orbital elements,

1    12U 59001B   19340.64158044  .00000007  00000-0  11264-5 0  9993
2    12  32.9001 309.0413 1666113 137.0055 237.3492 11.44316289500357
Epoch (UTC): 06 December 2019 15:23:52
Eccentricity: 0.1666113
inclination: 32.9001°
perigee height: 554 km
apogee height: 3326 km
right ascension of ascending node: 309.0413°
argument of perigee: 137.0055°
revolutions per day: 11.44316289
mean anomaly at epoch: 237.3492°
orbit number at epoch: 50035

The dashed part of the orbit path shows where the satellite is in the earth's shadow,  

DLR